EW9092 Weather Reports


Display with metric or nautical units.
time (UTC)temp
F
wind
direction
speed
MPH
gust
MPH
rain 1hr
in
rain 24hr
in
rain mn
in
humidity
%
barometer
mb
20260509175238 89 282 2.0 6.0 0.00 0.00 0.00 16 1013.9
20260509174736 89 266 3.0 6.0 0.00 0.00 0.00 16 1014.0
20260509174240 89 283 3.0 6.0 0.00 0.00 0.00 16 1013.9
20260509173738 89 257 2.0 5.0 0.00 0.00 0.00 16 1014.0
20260509173236 89 256 1.0 4.0 0.00 0.00 0.00 16 1014.0
20260509172737 89 278 2.0 5.0 0.00 0.00 0.00 16 1014.0
20260509172238 88 255 2.0 5.0 0.00 0.00 0.00 16 1014.1
20260509171738 88 293 1.0 4.0 0.00 0.00 0.00 16 1014.1
20260509171237 88 285 2.0 5.0 0.00 0.00 0.00 16 1014.1
20260509170738 88 276 2.0 5.0 0.00 0.00 0.00 17 1014.1
20260509170238 88 221 2.0 5.0 0.00 0.00 0.00 17 1014.1
20260509165738 87 227 1.0 4.0 0.00 0.00 0.00 17 1014.1
20260509165232 87 272 1.0 4.0 0.00 0.00 0.00 18 1014.1
20260509164726 86 284 1.0 4.0 0.00 0.00 0.00 18 1014.2
20260509164219 86 26 1.0 4.0 0.00 0.00 0.00 18 1014.1
20260509163720 86 278 1.0 4.0 0.00 0.00 0.00 19 1014.2
20260509163216 85 274 1.0 4.0 0.00 0.00 0.00 18 1014.2
20260509162719 85 274 1.0 5.0 0.00 0.00 0.00 19 1014.2
20260509162216 85 269 1.0 5.0 0.00 0.00 0.00 19 1014.4
20260509161938 85 300 1.0 4.0 0.00 0.00 0.00 19 1014.2
20260509161218 85 153 1.0 4.0 0.00 0.00 0.00 19 1014.2
20260509160717 84 334 2.0 4.0 0.00 0.00 0.00 19 1014.2
20260509160214 84 226 1.0 4.0 0.00 0.00 0.00 20 1014.2
20260509155715 85 279 0.0 3.0 0.00 0.00 0.00 19 1014.4
20260509155211 84 277 0.0 2.0 0.00 0.00 0.00 20 1014.2
20260509155154 84 263 0.0 2.0 0.00 0.00 0.00 20 1014.4
20260509154207 83 114 0.0 2.0 0.00 0.00 0.00 21 1014.2
20260509153706 83 262 0.0 2.0 0.00 0.00 0.00 21 1014.2
20260509153202 84 273 0.0 0.0 0.00 0.00 0.00 21 1014.4
20260509152703 82 205 0.0 0.0 0.00 0.00 0.00 21 1014.4
20260509152158 82 205 0.0 0.0 0.00 0.00 0.00 21 1014.4
20260509151652 82 205 0.0 0.0 0.00 0.00 0.00 21 1014.4
20260509151147 82 205 0.0 0.0 0.00 0.00 0.00 21 1014.4
20260509150906 82 205 0.0 0.0 0.00 0.00 0.00 22 1014.4
20260509150141 82 205 0.0 0.0 0.00 0.00 0.00 21 1014.4
20260509145641 81 205 0.0 0.0 0.00 0.00 0.00 22 1014.4
20260509145140 81 205 0.0 0.0 0.00 0.00 0.00 22 1014.4
20260509144637 80 205 0.0 0.0 0.00 0.00 0.00 23 1014.4
20260509144136 78 205 0.0 0.0 0.00 0.00 0.00 26 1014.5
20260509144125 77 205 0.0 0.0 0.00 0.00 0.00 27 1014.4
20260509143136 76 234 0.0 0.0 0.00 0.00 0.00 27 1014.4
20260509142900 76 183 0.0 1.0 0.00 0.00 0.00 27 1014.2
20260509142136 75 205 0.0 1.0 0.00 0.00 0.00 28 1014.2
20260509141637 74 229 0.0 1.0 0.00 0.00 0.00 29 1014.2
20260509141136 73 231 0.0 1.0 0.00 0.00 0.00 29 1014.2
20260509140637 73 139 0.0 1.0 0.00 0.00 0.00 31 1014.1
20260509140622 71 141 0.0 2.0 0.00 0.00 0.00 31 1014.1
20260509135636 70 141 1.0 2.0 0.00 0.00 0.00 31 1014.1
20260509135137 69 147 1.0 2.0 0.00 0.00 0.00 31 1014.0
20260509134636 69 133 1.0 3.0 0.00 0.00 0.00 32 1014.0
20260509134136 68 145 1.0 3.0 0.00 0.00 0.00 32 1014.0
20260509133636 67 139 1.0 3.0 0.00 0.00 0.00 32 1013.9
20260509133356 67 140 1.0 4.0 0.00 0.00 0.00 34 1013.8
20260509132636 66 146 1.0 4.0 0.00 0.00 0.00 33 1013.8
20260509132137 66 137 1.0 4.0 0.00 0.00 0.00 33 1013.8
20260509131904 65 152 1.0 3.0 0.00 0.00 0.00 35 1013.8
20260509131358 65 145 1.0 3.0 0.00 0.00 0.00 36 1013.7
20260509130638 64 131 1.0 3.0 0.00 0.00 0.00 37 1013.7
20260509130133 63 195 1.0 3.0 0.00 0.00 0.00 38 1013.6
20260509125633 63 186 1.0 4.0 0.00 0.00 0.00 39 1013.6
20260509125133 62 217 1.0 4.0 0.00 0.00 0.00 40 1013.5
20260509124630 62 230 0.0 2.0 0.00 0.00 0.00 41 1013.5
20260509124132 61 146 0.0 2.0 0.00 0.00 0.00 42 1013.4
20260509123631 61 158 0.0 0.0 0.00 0.00 0.00 43 1013.5
20260509123129 61 158 0.0 0.0 0.00 0.00 0.00 43 1013.4
20260509122628 62 158 0.0 0.0 0.00 0.00 0.00 42 1013.3
20260509122133 62 158 0.0 0.0 0.00 0.00 0.00 42 1013.3
20260509121848 62 158 0.0 0.0 0.00 0.00 0.00 42 1013.2
20260509121124 62 158 0.0 0.0 0.00 0.00 0.00 41 1013.2
20260509120621 62 155 0.0 0.0 0.00 0.00 0.00 41 1013.2
20260509120123 62 262 0.0 0.0 0.00 0.00 0.00 40 1013.2
20260509115624 63 231 0.0 0.0 0.00 0.00 0.00 41 1013.1
20260509115346 63 271 0.0 0.0 0.00 0.00 0.00 40 1013.1
20260509114622 63 146 0.0 0.0 0.00 0.00 0.00 40 1013.1
20260509114124 63 91 0.0 0.0 0.00 0.00 0.00 41 1012.9
20260509113623 63 91 0.0 0.0 0.00 0.00 0.00 40 1013.1
20260509113122 63 91 0.0 0.0 0.00 0.00 0.00 40 1013.1
20260509112616 64 91 0.0 0.0 0.00 0.00 0.00 39 1012.9
20260509112332 64 65 0.0 0.0 0.00 0.00 0.00 39 1012.9
20260509111833 65 65 0.0 0.0 0.00 0.00 0.00 36 1013.1
20260509111110 66 65 0.0 0.0 0.00 0.00 0.00 35 1012.9
20260509110610 65 65 0.0 0.0 0.00 0.00 0.00 34 1012.9
20260509110106 65 65 0.0 0.0 0.00 0.00 0.00 35 1012.8
20260509105604 65 65 0.0 0.0 0.00 0.00 0.00 35 1012.8
20260509105100 65 65 0.0 0.0 0.00 0.00 0.00 35 1012.8
20260509104600 66 65 0.0 0.0 0.00 0.00 0.00 35 1012.8
20260509104108 66 65 0.0 0.0 0.00 0.00 0.00 34 1012.9
20260509103557 65 39 0.0 0.0 0.00 0.00 0.00 35 1012.9
20260509103047 65 20 0.0 0.0 0.00 0.00 0.00 35 1012.9
20260509102541 65 20 0.0 0.0 0.00 0.00 0.00 36 1012.8
20260509102300 65 20 0.0 0.0 0.00 0.00 0.00 36 1012.9
20260509101745 65 20 0.0 0.0 0.00 0.00 0.00 34 1012.8
20260509101019 66 20 0.0 0.0 0.00 0.00 0.00 35 1012.9
20260509100513 66 20 0.0 0.0 0.00 0.00 0.00 35 1012.9
20260509100005 66 20 0.0 1.0 0.00 0.00 0.00 34 1012.9
20260509095719 66 20 0.0 1.0 0.00 0.00 0.00 34 1012.9
20260509094951 67 20 0.0 3.0 0.00 0.00 0.00 34 1012.9
20260509094441 67 20 1.0 3.0 0.00 0.00 0.00 33 1012.9
20260509093935 68 2 1.0 2.0 0.00 0.00 0.00 31 1012.9
20260509093430 69 359 0.0 2.0 0.00 0.00 0.00 29 1012.9
20260509092919 70 153 1.0 3.0 0.00 0.00 0.00 28 1012.8
20260509092413 70 158 1.0 3.0 0.00 0.00 0.00 27 1012.8
20260509091908 70 194 1.0 3.0 0.00 0.00 0.00 26 1012.9
20260509091358 70 165 1.0 2.0 0.00 0.00 0.00 27 1012.9
20260509090852 70 155 1.0 2.0 0.00 0.00 0.00 27 1012.9
20260509090352 70 144 0.0 2.0 0.00 0.00 0.00 27 1012.9
20260509085848 71 160 0.0 2.0 0.00 0.00 0.00 27 1012.9
20260509085348 71 171 0.0 2.0 0.00 0.00 0.00 26 1013.1
20260509084848 71 150 0.0 2.0 0.00 0.00 0.00 26 1012.9
20260509084605 71 144 1.0 4.0 0.00 0.00 0.00 26 1012.9
20260509083849 71 137 2.0 4.0 0.00 0.00 0.00 26 1012.9
20260509083349 71 145 2.0 4.0 0.00 0.00 0.00 26 1012.9
20260509082848 71 138 2.0 4.0 0.00 0.00 0.00 26 1013.1
20260509082348 71 148 1.0 3.0 0.00 0.00 0.00 26 1013.1
20260509081848 71 153 1.0 2.0 0.00 0.00 0.00 26 1012.9
20260509081348 71 128 1.0 2.0 0.00 0.00 0.00 26 1013.1
20260509080849 70 152 0.0 2.0 0.00 0.00 0.00 26 1013.1
20260509080351 70 71 0.0 1.0 0.00 0.00 0.00 28 1013.1
20260509075850 71 68 0.0 1.0 0.00 0.00 0.00 27 1013.1
20260509075341 71 68 0.0 1.0 0.00 0.00 0.00 27 1012.9
20260509074835 72 134 0.0 2.0 0.00 0.00 0.00 24 1013.1
20260509074335 73 134 1.0 2.0 0.00 0.00 0.00 24 1012.9
20260509073835 73 150 1.0 3.0 0.00 0.00 0.00 24 1013.1
20260509073601 73 165 1.0 4.0 0.00 0.00 0.00 23 1012.9
20260509073052 73 205 1.0 4.0 0.00 0.00 0.00 23 1012.9
20260509072332 72 143 1.0 3.0 0.00 0.00 0.00 23 1012.9
20260509072052 72 203 1.0 3.0 0.00 0.00 0.00 23 1012.8
20260509071557 73 167 1.0 3.0 0.00 0.00 0.00 23 1012.8
20260509070832 72 179 1.0 4.0 0.00 0.00 0.00 23 1012.8
20260509070331 72 153 1.0 4.0 0.00 0.00 0.00 24 1012.9
20260509065806 72 133 0.0 2.0 0.00 0.00 0.00 25 1012.8
20260509065306 72 240 0.0 2.0 0.00 0.00 0.00 26 1012.8
20260509064805 72 29 0.0 2.0 0.00 0.00 0.00 26 1012.9
20260509064301 73 33 1.0 4.0 0.00 0.00 0.00 24 1012.8
20260509063755 73 156 1.0 4.0 0.00 0.00 0.00 23 1012.7
20260509063251 73 193 1.0 3.0 0.00 0.00 0.00 23 1012.6
20260509062751 74 145 1.0 3.0 0.00 0.00 0.00 23 1012.6
20260509062250 74 160 1.0 2.0 0.00 0.00 0.00 23 1012.6
20260509061756 74 149 0.0 2.0 0.00 0.00 0.00 23 1012.6
20260509061251 74 169 1.0 2.0 0.00 0.00 0.00 24 1012.6
20260509060750 74 142 1.0 2.0 0.00 0.00 0.00 24 1012.6
20260509060247 74 158 1.0 2.0 0.00 0.00 0.00 24 1012.6
20260509055748 74 151 0.0 3.0 0.00 0.00 0.00 24 1012.6
20260509055248 74 159 0.0 3.0 0.00 0.00 0.00 24 1012.5
20260509054746 74 209 0.0 2.0 0.00 0.00 0.00 24 1012.5
20260509054514 74 158 0.0 1.0 0.00 0.00 0.00 24 1012.5
20260509053746 75 157 0.0 0.0 0.00 0.00 0.00 25 1012.5
20260509053247 75 155 0.0 2.0 0.00 0.00 0.00 24 1012.5
20260509052745 75 155 0.0 2.0 0.00 0.00 0.00 24 1012.5
20260509052514 75 154 0.0 2.0 0.00 0.00 0.00 24 1012.4
20260509051741 75 134 0.0 0.0 0.00 0.00 0.00 24 1012.4
20260509051241 75 91 0.0 0.0 0.00 0.00 0.00 24 1012.4
20260509050740 76 91 0.0 0.0 0.00 0.00 0.00 23 1012.4
20260509050241 76 91 0.0 0.0 0.00 0.00 0.00 23 1012.4
20260509045742 77 91 0.0 0.0 0.00 0.00 0.00 23 1012.4
20260509045244 77 91 0.0 0.0 0.00 0.00 0.00 21 1012.4
20260509044740 77 91 0.0 0.0 0.00 0.00 0.00 22 1012.4
20260509044235 78 91 0.0 0.0 0.00 0.00 0.00 20 1012.3
20260509043952 78 91 0.0 0.0 0.00 0.00 0.00 20 1012.2
20260509043231 78 91 0.0 0.0 0.00 0.00 0.00 20 1012.2
20260509042732 79 91 0.0 0.0 0.00 0.00 0.00 19 1012.2
20260509042229 79 91 1.0 2.0 0.00 0.00 0.00 18 1012.1
20260509041731 79 91 1.0 2.0 0.00 0.00 0.00 18 1012.1
20260509041229 80 78 0.0 2.0 0.00 0.00 0.00 19 1012.1
20260509040951 80 264 0.0 0.0 0.00 0.00 0.00 18 1011.9
20260509040226 81 264 0.0 0.0 0.00 0.00 0.00 18 1011.9
20260509035953 81 264 0.0 0.0 0.00 0.00 0.00 17 1011.8
20260509035436 82 264 0.0 2.0 0.00 0.00 0.00 17 1011.8
20260509034712 82 264 0.0 2.0 0.00 0.00 0.00 16 1011.8
20260509034203 83 272 1.0 3.0 0.00 0.00 0.00 16 1011.8
20260509033924 83 270 1.0 3.0 0.00 0.00 0.00 16 1011.6
20260509033203 83 278 1.0 5.0 0.00 0.00 0.00 15 1011.6
20260509032923 84 281 1.0 5.0 0.00 0.00 0.00 15 1011.5
20260509032416 84 261 1.0 5.0 0.00 0.00 0.00 15 1011.5
20260509031659 84 288 1.0 5.0 0.00 0.00 0.00 15 1011.4
20260509031159 84 284 2.0 5.0 0.00 0.00 0.00 15 1011.4
20260509030920 85 269 2.0 5.0 0.00 0.00 0.00 14 1011.4
20260509030157 85 280 2.0 5.0 0.00 0.00 0.00 14 1011.3
20260509025657 85 275 2.0 5.0 0.00 0.00 0.00 14 1011.3
20260509025200 85 276 2.0 5.0 0.00 0.00 0.00 14 1011.2
20260509024659 85 252 2.0 6.0 0.00 0.00 0.00 14 1011.2
20260509024158 85 284 2.0 6.0 0.00 0.00 0.00 14 1011.1
20260509023657 85 246 2.0 5.0 0.00 0.00 0.00 14 1011.0
20260509023158 86 277 2.0 5.0 0.00 0.00 0.00 14 1011.0
20260509022926 86 267 2.0 5.0 0.00 0.00 0.00 14 1010.9
20260509022157 86 267 2.0 5.0 0.00 0.00 0.00 13 1010.9
20260509021656 87 276 2.0 5.0 0.00 0.00 0.00 13 1010.9
20260509021156 87 278 2.0 5.0 0.00 0.00 0.00 13 1010.8
20260509020920 88 278 2.0 5.0 0.00 0.00 0.00 13 1010.8
20260509020158 88 283 2.0 7.0 0.00 0.00 0.00 12 1010.8
20260509015656 89 267 2.0 7.0 0.00 0.00 0.00 12 1010.7
20260509015155 89 271 2.0 6.0 0.00 0.00 0.00 12 1010.7
20260509014655 89 25 3.0 7.0 0.00 0.00 0.00 11 1010.6
20260509014157 90 284 3.0 7.0 0.00 0.00 0.00 11 1010.6
20260509013656 90 248 3.0 8.0 0.00 0.00 0.00 11 1010.6
20260509013156 90 258 4.0 9.0 0.00 0.00 0.00 12 1010.5
20260509012655 90 286 4.0 9.0 0.00 0.00 0.00 11 1010.5
20260509012156 91 278 4.0 8.0 0.00 0.00 0.00 11 1010.5
20260509011655 91 257 4.0 9.0 0.00 0.00 0.00 11 1010.6
20260509011639 91 7 5.0 11.0 0.00 0.00 0.00 11 1010.5
20260509010656 91 300 5.0 11.0 0.00 0.00 0.00 11 1010.6
20260509010156 91 313 5.0 12.0 0.00 0.00 0.00 10 1010.6
20260509005921 92 264 3.0 12.0 0.00 0.00 0.00 10 1010.6
20260509005156 91 211 3.0 9.0 0.00 0.00 0.00 10 1010.6
20260509004656 92 337 4.0 10.0 0.00 0.00 0.00 10 1010.6
20260509004155 92 323 5.0 10.0 0.00 0.00 0.00 10 1010.6
20260509003657 92 331 5.0 11.0 0.00 0.00 0.00 10 1010.6
20260509003157 92 284 4.0 11.0 0.00 0.00 0.00 10 1010.6
20260509002653 92 348 6.0 12.0 0.00 0.00 0.00 10 1010.6
20260509002153 92 26 6.0 12.0 0.00 0.00 0.00 10 1010.5
20260509001650 92 265 6.0 13.0 0.00 0.00 0.00 10 1010.6
20260509001149 92 249 4.0 13.0 0.00 0.00 0.00 10 1010.5
20260509000650 92 299 4.0 13.0 0.00 0.00 0.00 10 1010.5
20260509000150 92 293 5.0 13.0 0.00 0.00 0.00 11 1010.6
20260508235649 93 252 5.0 10.0 0.00 0.00 0.00 10 1010.6
20260508235149 93 281 5.0 8.0 0.00 0.00 0.00 10 1010.6
20260508234649 93 276 4.0 13.0 0.00 0.00 0.00 10 1010.6
20260508234411 92 14 5.0 13.0 0.00 0.00 0.00 10 1010.6
20260508233645 92 338 5.0 11.0 0.00 0.00 0.00 10 1010.6
20260508233133 93 277 5.0 14.0 0.00 0.00 0.00 11 1010.7
20260508232627 93 296 4.0 14.0 0.00 0.00 0.00 11 1010.8
20260508232122 93 3 5.0 15.0 0.00 0.00 0.00 11 1010.8
20260508231611 93 307 6.0 15.0 0.00 0.00 0.00 11 1010.8
20260508231105 92 271 6.0 12.0 0.00 0.00 0.00 11 1010.8
20260508230600 92 265 6.0 11.0 0.00 0.00 0.00 11 1010.9
20260508230048 93 288 5.0 11.0 0.00 0.00 0.00 11 1011.0
20260508225545 93 333 5.0 11.0 0.00 0.00 0.00 11 1011.0
20260508225045 93 264 5.0 11.0 0.00 0.00 0.00 11 1011.0
20260508224546 93 252 6.0 14.0 0.00 0.00 0.00 12 1011.0
20260508224045 92 261 8.0 14.0 0.00 0.00 0.00 12 1011.1
20260508223544 92 290 7.0 14.0 0.00 0.00 0.00 11 1011.1
20260508223306 92 242 6.0 12.0 0.00 0.00 0.00 12 1011.1
20260508223036 92 262 5.0 12.0 0.00 0.00 0.00 11 1011.2
20260508222042 93 264 4.0 9.0 0.00 0.00 0.00 12 1011.3
20260508221541 92 265 6.0 13.0 0.00 0.00 0.00 12 1011.3
20260508221042 92 284 6.0 13.0 0.00 0.00 0.00 12 1011.4
20260508220542 92 282 5.0 12.0 0.00 0.00 0.00 12 1011.5
20260508220042 92 299 6.0 11.0 0.00 0.00 0.00 12 1011.6
20260508215541 92 273 7.0 13.0 0.00 0.00 0.00 12 1011.6
20260508215045 92 250 6.0 13.0 0.00 0.00 0.00 13 1011.6
20260508214758 92 233 5.0 13.0 0.00 0.00 0.00 12 1011.8
20260508214028 92 264 6.0 13.0 0.00 0.00 0.00 12 1011.9
20260508213523 92 257 6.0 12.0 0.00 0.00 0.00 13 1012.0
20260508213013 92 238 7.0 13.0 0.00 0.00 0.00 12 1012.1
20260508212508 91 256 8.0 14.0 0.00 0.00 0.00 13 1012.1
20260508212000 91 283 7.0 14.0 0.00 0.00 0.00 12 1012.2
20260508211451 91 342 7.0 13.0 0.00 0.00 0.00 13 1012.3
20260508211205 91 340 8.0 15.0 0.00 0.00 0.00 13 1012.3
20260508210439 91 283 7.0 17.0 0.00 0.00 0.00 13 1012.3
20260508205929 91 275 7.0 13.0 0.00 0.00 0.00 13 1012.4
20260508205423 91 346 7.0 14.0 0.00 0.00 0.00 13 1012.4
20260508204917 91 286 6.0 14.0 0.00 0.00 0.00 13 1012.5
20260508204411 91 349 6.0 12.0 0.00 0.00 0.00 13 1012.6
20260508203908 91 300 6.0 12.0 0.00 0.00 0.00 13 1012.7
20260508203405 91 252 6.0 12.0 0.00 0.00 0.00 13 1012.7
20260508202905 91 297 6.0 11.0 0.00 0.00 0.00 13 1012.8
20260508202407 91 348 6.0 12.0 0.00 0.00 0.00 14 1012.9
20260508201903 91 243 6.0 12.0 0.00 0.00 0.00 13 1012.8
20260508201632 90 238 6.0 12.0 0.00 0.00 0.00 14 1012.9
20260508200905 90 278 6.0 12.0 0.00 0.00 0.00 14 1013.1
20260508200401 90 275 6.0 12.0 0.00 0.00 0.00 14 1013.1
20260508200129 89 259 6.0 13.0 0.00 0.00 0.00 15 1013.2
20260508195401 89 248 6.0 13.0 0.00 0.00 0.00 15 1013.4
20260508194859 90 274 5.0 12.0 0.00 0.00 0.00 15 1013.4
20260508194359 89 243 4.0 8.0 0.00 0.00 0.00 15 1013.4
20260508194120 89 283 4.0 13.0 0.00 0.00 0.00 15 1013.5
20260508193359 89 285 5.0 13.0 0.00 0.00 0.00 15 1013.5
20260508192856 89 286 5.0 13.0 0.00 0.00 0.00 15 1013.5
20260508192606 88 231 3.0 13.0 0.00 0.00 0.00 16 1013.6
20260508191845 88 276 4.0 9.0 0.00 0.00 0.00 15 1013.6
20260508191337 89 203 4.0 8.0 0.00 0.00 0.00 16 1013.7
20260508190839 88 240 4.0 7.0 0.00 0.00 0.00 16 1013.8
20260508190335 88 279 3.0 7.0 0.00 0.00 0.00 16 1013.9
20260508185836 88 342 2.0 6.0 0.00 0.00 0.00 16 1014.0
20260508185336 88 330 2.0 6.0 0.00 0.00 0.00 17 1014.1
20260508185102 87 343 2.0 5.0 0.00 0.00 0.00 17 1014.1
20260508184559 87 242 2.0 4.0 0.00 0.00 0.00 17 1014.2
20260508183833 86 274 3.0 8.0 0.00 0.00 0.00 17 1014.4
20260508183333 87 262 3.0 8.0 0.00 0.00 0.00 17 1014.5
20260508182835 87 285 3.0 8.0 0.00 0.00 0.00 17 1014.5
20260508182331 87 207 2.0 8.0 0.00 0.00 0.00 17 1014.5
20260508182055 87 275 2.0 4.0 0.00 0.00 0.00 18 1014.5
20260508181329 86 264 2.0 7.0 0.00 0.00 0.00 18 1014.6
20260508180829 86 293 2.0 7.0 0.00 0.00 0.00 18 1014.7
20260508180328 85 281 2.0 7.0 0.00 0.00 0.00 18 1014.8
20260508175824 85 233 2.0 7.0 0.00 0.00 0.00 19 1014.9